[[{"header":{"parameterUnit":"m.s-1","parameterCategory":2,"la1":30.2992,"la2":30.254,"lo1":-89.0895,"lo2":-89.0443,"dy":0.0025,"dx":0.0025,"nx":19,"ny":19,"refTime":"2026-03-22T09:00:00:Z","depth":"0","parameterNumber":2,"parameterNumberName":"U-component_of_CURRENTS"},"data":[0,0,0,-0.1269,-0.1271,-0.1305,-0.1305,-0.1294,-0.1293,0,0,0,0,0,0,0,0,0,0,0,-0.125,-0.1251,-0.1269,-0.1271,-0.1305,-0.1305,-0.1294,-0.1293,0,0,0,0,0,0,0,0,0,0,0,-0.125,-0.1251,-0.1252,-0.1271,-0.1306,-0.1305,-0.1294,-0.1277,0,0,0,0,0,0,0,0,0,0,-0.1248,-0.1231,-0.1251,-0.1252,-0.1271,-0.1306,-0.1305,-0.1276,-0.1278,-0.1268,0,-0.1284,0,-0.1299,-0.1293,-0.1293,0,0,0,-0.1252,-0.123,-0.1259,-0.1252,-0.1272,-0.1306,-0.1285,-0.1278,-0.1279,-0.1269,-0.1284,-0.1284,-0.1299,-0.1293,-0.1293,-0.1263,-0.1263,0,0,-0.125,-0.1234,-0.1258,-0.1261,-0.1295,-0.1284,-0.1286,-0.1279,-0.1273,-0.1284,-0.1285,-0.1299,-0.1293,-0.1293,-0.1263,-0.1263,0,0,0,-0.1257,-0.1232,-0.1261,-0.126,-0.1277,-0.1285,-0.1288,-0.1273,-0.1289,-0.1285,-0.1299,-0.1293,-0.1293,-0.1263,-0.1263,-0.1281,0,0,0,-0.1255,-0.1239,-0.1261,-0.1248,-0.1278,-0.1281,-0.1282,-0.1289,-0.129,-0.1299,-0.1293,-0.1293,-0.1264,-0.1263,-0.1281,-0.129,0,0,0,-0.1246,-0.1237,-0.125,-0.1248,-0.1275,-0.1282,-0.1296,-0.1289,-0.1299,-0.1293,-0.1293,-0.1264,-0.1263,-0.1282,-0.129,-0.1284,0,0,0,-0.1215,-0.121,-0.1249,-0.1254,-0.1275,-0.1283,-0.1296,-0.1291,-0.1284,-0.1293,-0.1264,-0.1263,-0.1282,-0.129,-0.1285,-0.1215,-0.1209,0,0,-0.1186,-0.1205,-0.1212,-0.1249,-0.1268,-0.1276,-0.1274,-0.1275,-0.1269,-0.126,-0.1259,-0.1281,-0.129,-0.1284,-0.1175,-0.1171,0,0,0,-0.1188,-0.1197,-0.1206,-0.1238,-0.1257,-0.1275,-0.1275,-0.1274,-0.127,-0.1268,-0.1262,-0.1266,-0.1263,-0.122,-0.1216,-0.1088,-0.126,-0.126,-0.126,-0.1139,-0.1176,-0.1192,-0.1239,-0.1248,-0.1266,-0.1267,-0.1265,-0.1259,-0.1258,-0.1267,-0.1256,-0.1209,-0.1206,-0.1074,-0.125,-0.125,-0.125,-0.125,-0.1139,-0.1157,-0.1209,-0.1234,-0.1269,-0.1272,-0.1282,-0.128,-0.1268,-0.1266,-0.1262,-0.1223,-0.1203,-0.1063,-0.1251,-0.1251,-0.1251,-0.1251,-0.125,-0.1136,-0.1138,-0.1179,-0.1227,-0.1258,-0.1282,-0.129,-0.1289,-0.1285,-0.1278,-0.1217,-0.1216,-0.1106,-0.1272,-0.1272,-0.1272,-0.1272,-0.1272,-0.1272,-0.1102,-0.1137,-0.1154,-0.1207,-0.1225,-0.1256,-0.1285,-0.1285,-0.1253,-0.1224,-0.1223,-0.107,-0.1262,-0.1276,-0.1272,-0.1272,-0.1272,-0.1272,-0.1272,-0.1057,-0.1078,-0.1098,-0.1119,-0.1159,-0.1145,-0.1214,-0.1197,-0.1202,-0.1169,-0.0991,-0.1189,-0.1175,-0.1177,-0.1187,-0.1161,-0.1161,-0.1161,-0.1161,-0.1011,-0.103,-0.1034,-0.1045,-0.1061,-0.1083,-0.1013,-0.0997,-0.0932,-0.085,-0.0874,-0.0833,-0.0843,-0.0808,-0.0818,-0.082,-0.0701,-0.07,-0.0699,-0.0974,-0.0989,-0.0968,-0.0994,-0.1007,-0.0989,-0.0861,-0.072,-0.0649,-0.067,-0.0708,-0.0727,-0.0659,-0.0685,-0.0626,-0.065,-0.0653,0,0]},{"header":{"parameterUnit":"m.s-1","parameterCategory":2,"la1":30.2992,"la2":30.254,"lo1":-89.0895,"lo2":-89.0443,"dy":0.0025,"dx":0.0025,"nx":19,"ny":19,"refTime":"2026-03-22T09:00:00:Z","depth":"0","parameterNumber":3,"parameterNumberName":"V-component_of_CURRENTS"},"data":[0,0,0,-0.0585,-0.0584,-0.0582,-0.0582,-0.0518,-0.0517,0,0,0,0,0,0,0,0,0,0,0,-0.0581,-0.058,-0.0586,-0.0584,-0.0582,-0.0582,-0.0518,-0.0517,0,0,0,0,0,0,0,0,0,0,0,-0.0582,-0.0581,-0.0579,-0.0584,-0.0582,-0.0582,-0.0518,-0.0543,0,0,0,0,0,0,0,0,0,0,-0.0556,-0.0578,-0.0581,-0.0579,-0.0584,-0.0582,-0.0582,-0.0545,-0.0541,-0.0491,0,-0.0462,0,-0.0472,-0.0508,-0.0507,0,0,0,-0.0617,-0.0581,-0.0545,-0.0579,-0.0583,-0.0582,-0.0592,-0.0544,-0.0539,-0.0485,-0.0462,-0.046,-0.0471,-0.0507,-0.0506,-0.0457,-0.0457,0,0,-0.0617,-0.0621,-0.0548,-0.0541,-0.0543,-0.0592,-0.0592,-0.0542,-0.0539,-0.0461,-0.0459,-0.047,-0.0506,-0.0505,-0.0457,-0.0457,0,0,0,-0.0595,-0.0621,-0.0589,-0.0543,-0.0538,-0.0591,-0.0591,-0.0543,-0.0521,-0.0458,-0.0469,-0.0505,-0.0504,-0.0456,-0.0457,-0.0506,0,0,0,-0.0597,-0.0605,-0.0588,-0.0597,-0.0538,-0.0555,-0.0593,-0.0525,-0.052,-0.0469,-0.0505,-0.0502,-0.0456,-0.0456,-0.0504,-0.0511,0,0,0,-0.0589,-0.0606,-0.0586,-0.0596,-0.0577,-0.0556,-0.0536,-0.0525,-0.0524,-0.0507,-0.0502,-0.0455,-0.0456,-0.0502,-0.0507,-0.0513,0,0,0,-0.0622,-0.0587,-0.0586,-0.0553,-0.0576,-0.0581,-0.0537,-0.0544,-0.0536,-0.0505,-0.0456,-0.0457,-0.0501,-0.0505,-0.0512,-0.0503,-0.051,0,0,-0.0598,-0.0585,-0.0565,-0.0562,-0.0569,-0.0586,-0.0613,-0.0573,-0.0534,-0.0471,-0.0471,-0.0505,-0.0507,-0.0513,-0.0564,-0.0569,0,0,0,-0.0571,-0.0567,-0.0569,-0.0564,-0.0564,-0.0607,-0.0595,-0.0585,-0.0557,-0.0525,-0.0512,-0.0512,-0.0514,-0.0506,-0.051,-0.0307,-0.0462,-0.0461,-0.0461,-0.0586,-0.0573,-0.0578,-0.0581,-0.0588,-0.062,-0.0642,-0.0624,-0.0582,-0.0584,-0.0559,-0.0604,-0.0598,-0.06,-0.0392,-0.0573,-0.0574,-0.0574,-0.0574,-0.0601,-0.0608,-0.0602,-0.0608,-0.0625,-0.0644,-0.0654,-0.065,-0.0643,-0.0613,-0.0612,-0.0567,-0.0608,-0.0383,-0.0577,-0.0577,-0.0576,-0.0576,-0.0576,-0.0645,-0.0646,-0.0641,-0.0648,-0.0651,-0.066,-0.066,-0.0672,-0.0666,-0.068,-0.0644,-0.0642,-0.0436,-0.0673,-0.0673,-0.0673,-0.0673,-0.0673,-0.0673,-0.0695,-0.0688,-0.0695,-0.0696,-0.0678,-0.067,-0.0668,-0.0672,-0.0684,-0.0686,-0.0685,-0.0426,-0.0633,-0.0619,-0.0674,-0.0674,-0.0674,-0.0674,-0.0674,-0.0741,-0.0736,-0.0736,-0.0725,-0.0692,-0.066,-0.0667,-0.0669,-0.0686,-0.069,-0.0443,-0.0686,-0.0661,-0.0657,-0.0643,-0.0701,-0.0701,-0.0701,-0.0701,-0.0766,-0.077,-0.0737,-0.0705,-0.0686,-0.0647,-0.0628,-0.064,-0.0522,-0.0414,-0.0338,-0.029,-0.0298,-0.0246,-0.0252,-0.0228,-0.0179,-0.0178,-0.0177,-0.0783,-0.0765,-0.0728,-0.0695,-0.0658,-0.0625,-0.0584,-0.0573,-0.0357,-0.0132,-0.0052,-0.0075,0.002,-0.0009,0.0088,0.0065,0.0109,0,0]}],[{"header":{"parameterUnit":"m.s-1","parameterCategory":2,"la1":30.2992,"la2":30.254,"lo1":-89.0895,"lo2":-89.0443,"dy":0.0025,"dx":0.0025,"nx":19,"ny":19,"refTime":"2026-03-22T09:00:00:Z","depth":"2","parameterNumber":2,"parameterNumberName":"U-component_of_CURRENTS"},"data":[0,0,0,-0.2156,-0.2152,-0.2005,-0.2005,-0.1993,-0.1993,0,0,0,0,0,0,0,0,0,0,0,-0.2201,-0.2199,-0.2156,-0.2152,-0.2005,-0.2005,-0.1993,-0.1993,0,0,0,0,0,0,0,0,0,0,0,-0.2202,-0.22,-0.2198,-0.2151,-0.2005,-0.2005,-0.1993,-0.2065,0,0,0,0,0,0,0,0,0,0,-0.2188,-0.2184,-0.22,-0.2197,-0.215,-0.2005,-0.2005,-0.2067,-0.2061,-0.2103,0,-0.205,0,-0.2017,-0.1994,-0.1994,0,0,0,-0.2173,-0.2189,-0.2158,-0.2197,-0.2148,-0.2005,-0.2077,-0.2062,-0.2055,-0.2096,-0.2049,-0.2047,-0.2017,-0.1994,-0.1994,-0.1964,-0.1964,0,0,-0.2181,-0.2178,-0.2161,-0.2152,-0.2074,-0.2082,-0.2072,-0.2056,-0.2033,-0.2049,-0.2046,-0.2017,-0.1994,-0.1995,-0.1965,-0.1964,0,0,0,-0.219,-0.2183,-0.2149,-0.2154,-0.211,-0.2077,-0.2066,-0.2034,-0.2023,-0.2046,-0.2016,-0.1995,-0.1995,-0.1965,-0.1964,-0.1939,0,0,0,-0.2196,-0.2187,-0.2152,-0.215,-0.2108,-0.2042,-0.2044,-0.2024,-0.202,-0.2017,-0.1995,-0.1995,-0.1966,-0.1965,-0.1941,-0.1924,0,0,0,-0.2214,-0.2189,-0.2162,-0.2149,-0.2077,-0.2041,-0.2029,-0.2022,-0.2003,-0.1994,-0.1995,-0.1966,-0.1965,-0.1942,-0.1927,-0.1909,0,0,0,-0.2234,-0.2126,-0.2161,-0.2071,-0.2078,-0.1997,-0.2028,-0.1959,-0.1939,-0.1995,-0.1966,-0.1964,-0.1943,-0.1928,-0.191,-0.1904,-0.1895,0,0,-0.2108,-0.2111,-0.2072,-0.2099,-0.2035,-0.2021,-0.1977,-0.1957,-0.1947,-0.1989,-0.1986,-0.194,-0.1927,-0.1909,-0.1839,-0.1833,0,0,0,-0.2043,-0.2016,-0.2,-0.1984,-0.1953,-0.1954,-0.1929,-0.1925,-0.191,-0.1925,-0.1924,-0.1916,-0.1906,-0.1905,-0.19,-0.1959,-0.1959,-0.1959,-0.196,-0.1908,-0.1947,-0.1903,-0.1941,-0.1909,-0.1905,-0.1893,-0.1891,-0.1892,-0.1869,-0.1884,-0.1836,-0.1833,-0.183,-0.1874,-0.1874,-0.1874,-0.1874,-0.1873,-0.1835,-0.183,-0.1894,-0.1857,-0.1895,-0.1865,-0.1881,-0.1873,-0.1853,-0.1856,-0.1847,-0.1863,-0.1822,-0.1871,-0.1872,-0.1872,-0.1872,-0.1872,-0.1872,-0.1836,-0.1813,-0.1829,-0.1818,-0.1806,-0.1819,-0.1804,-0.1813,-0.1812,-0.1793,-0.1782,-0.1783,-0.1829,-0.1776,-0.1776,-0.1775,-0.1775,-0.1775,-0.1775,-0.1796,-0.1803,-0.1758,-0.1755,-0.1715,-0.1706,-0.173,-0.1737,-0.1743,-0.1743,-0.1744,-0.1803,-0.1806,-0.1823,-0.1772,-0.1773,-0.1773,-0.1773,-0.1774,-0.1688,-0.1718,-0.1639,-0.16,-0.1546,-0.1512,-0.1604,-0.1638,-0.166,-0.1658,-0.1727,-0.1729,-0.1737,-0.1742,-0.1756,-0.1691,-0.1691,-0.1691,-0.1691,-0.1603,-0.1624,-0.1501,-0.1425,-0.1385,-0.1407,-0.1375,-0.1455,-0.1557,-0.1576,-0.158,-0.1595,-0.1601,-0.1603,-0.1611,-0.1623,-0.1523,-0.1523,-0.1522,-0.1491,-0.1482,-0.1369,-0.1342,-0.1292,-0.1278,-0.1215,-0.1234,-0.134,-0.1512,-0.1511,-0.1688,-0.1725,-0.1729,-0.1746,-0.1753,-0.1779,0,0]},{"header":{"parameterUnit":"m.s-1","parameterCategory":2,"la1":30.2992,"la2":30.254,"lo1":-89.0895,"lo2":-89.0443,"dy":0.0025,"dx":0.0025,"nx":19,"ny":19,"refTime":"2026-03-22T09:00:00:Z","depth":"2","parameterNumber":3,"parameterNumberName":"V-component_of_CURRENTS"},"data":[0,0,0,-0.0028,-0.0031,-0.0173,-0.0174,-0.0105,-0.0104,0,0,0,0,0,0,0,0,0,0,0,0.0036,0.0035,-0.0027,-0.0031,-0.0173,-0.0174,-0.0105,-0.0104,0,0,0,0,0,0,0,0,0,0,0,0.0036,0.0035,0.0034,-0.0032,-0.0173,-0.0174,-0.0106,-0.0059,0,0,0,0,0,0,0,0,0,0,0.0049,0.0032,0.0036,0.0034,-0.0033,-0.0173,-0.0174,-0.0059,-0.0062,0.0028,0,0.0002,0,-0.0052,-0.0094,-0.0094,0,0,0,-0.0024,0.0033,0.0029,0.0034,-0.0034,-0.0173,-0.0107,-0.0063,-0.0065,0.0027,0.0002,0.0002,-0.0051,-0.0093,-0.0093,-0.0055,-0.0055,0,0,-0.0016,-0.0016,0.003,0.0027,-0.007,-0.0102,-0.0111,-0.0067,-0.0082,0.0002,0.0002,-0.005,-0.0092,-0.0091,-0.0054,-0.0055,0,0,0,0.0002,-0.0011,-0.0022,0.0027,-0.0021,-0.0107,-0.0117,-0.0085,-0.008,0.0002,-0.0049,-0.0092,-0.009,-0.0053,-0.0054,-0.0123,0,0,0,0.0007,-0.0001,-0.0018,-0.0024,-0.0024,-0.01,-0.0136,-0.0083,-0.0081,-0.005,-0.0092,-0.0089,-0.0053,-0.0054,-0.0119,-0.0145,0,0,0,0.0042,0.0001,-0.0008,-0.0023,-0.0086,-0.0103,-0.0098,-0.0085,-0.011,-0.0094,-0.0088,-0.0052,-0.0054,-0.0116,-0.014,-0.0159,0,0,0,0.0039,-0.0017,-0.0008,-0.0068,-0.0085,-0.0159,-0.01,-0.0151,-0.0148,-0.0091,-0.0053,-0.0054,-0.0115,-0.0137,-0.0156,-0.0136,-0.0147,0,0,-0.0033,-0.0026,-0.0052,-0.0047,-0.0112,-0.0139,-0.0203,-0.0168,-0.0134,-0.0045,-0.0047,-0.012,-0.014,-0.0158,-0.0226,-0.0235,0,0,0,-0.0073,-0.0092,-0.011,-0.0142,-0.0176,-0.0213,-0.0219,-0.021,-0.0187,-0.0142,-0.0133,-0.0143,-0.0152,-0.0135,-0.0142,-0.0062,-0.0061,-0.0061,-0.0061,-0.0157,-0.0145,-0.0197,-0.0195,-0.0229,-0.0263,-0.0287,-0.0269,-0.0221,-0.0236,-0.0209,-0.0283,-0.0267,-0.0272,-0.0221,-0.0222,-0.0222,-0.0222,-0.0222,-0.0234,-0.0262,-0.0238,-0.0289,-0.0285,-0.0325,-0.0323,-0.0316,-0.032,-0.0283,-0.0288,-0.0221,-0.0284,-0.0228,-0.0227,-0.0226,-0.0226,-0.0225,-0.0225,-0.0274,-0.0299,-0.0307,-0.0348,-0.0371,-0.0374,-0.0392,-0.0389,-0.0378,-0.0399,-0.0355,-0.0353,-0.0306,-0.0399,-0.0399,-0.0399,-0.0399,-0.04,-0.04,-0.0334,-0.0346,-0.0387,-0.0419,-0.0435,-0.0447,-0.0445,-0.0448,-0.0442,-0.0427,-0.0426,-0.0342,-0.0336,-0.0316,-0.0403,-0.0403,-0.0402,-0.0402,-0.0402,-0.0432,-0.0414,-0.0468,-0.0489,-0.0511,-0.0505,-0.0502,-0.0491,-0.0495,-0.0493,-0.0432,-0.043,-0.0399,-0.0392,-0.0373,-0.047,-0.047,-0.047,-0.047,-0.0481,-0.0483,-0.0515,-0.0532,-0.0549,-0.0525,-0.0507,-0.0362,-0.0312,-0.0182,-0.0193,-0.0132,-0.0138,-0.0087,-0.0087,-0.0058,-0.0073,-0.0072,-0.0071,-0.0538,-0.053,-0.0544,-0.0539,-0.0549,-0.0533,-0.0475,-0.0172,0.0138,-0.0043,0.0006,-0.0468,-0.0411,-0.0408,-0.0352,-0.0343,-0.0306,0,0]}],[{"header":{"parameterUnit":"m.s-1","parameterCategory":2,"la1":30.2992,"la2":30.254,"lo1":-89.0895,"lo2":-89.0443,"dy":0.0025,"dx":0.0025,"nx":19,"ny":19,"refTime":"2026-03-22T09:00:00:Z","depth":"4","parameterNumber":2,"parameterNumberName":"U-component_of_CURRENTS"},"data":[0,0,0,-0.1235,-0.1237,-0.1385,-0.1386,-0.1539,-0.154,0,0,0,0,0,0,0,0,0,0,0,-0.1199,-0.12,-0.1234,-0.1237,-0.1384,-0.1386,-0.1539,-0.154,0,0,0,0,0,0,0,0,0,0,0,-0.1199,-0.12,-0.1201,-0.1237,-0.1384,-0.1386,-0.1539,-0.1443,0,0,0,0,0,0,0,0,0,0,-0.1307,-0.1265,-0.12,-0.1201,-0.1238,-0.1384,-0.1386,-0.1439,-0.1449,-0.1453,0,-0.1472,0,-0.1489,-0.1547,-0.1547,0,0,0,-0.1267,-0.1257,-0.1292,-0.1201,-0.1239,-0.1384,-0.1326,-0.1445,-0.1456,-0.1465,-0.1474,-0.148,-0.1491,-0.1548,-0.1548,-0.1646,-0.1647,0,0,-0.1259,-0.1233,-0.1285,-0.1299,-0.1271,-0.1321,-0.133,-0.1453,-0.1463,-0.1475,-0.1483,-0.1494,-0.1548,-0.1549,-0.1646,-0.1646,0,0,0,-0.1215,-0.1227,-0.1261,-0.1293,-0.1311,-0.1325,-0.1336,-0.1458,-0.1468,-0.1485,-0.1495,-0.1549,-0.155,-0.1646,-0.1646,-0.1664,0,0,0,-0.1212,-0.12,-0.1257,-0.1245,-0.1308,-0.1388,-0.1338,-0.1461,-0.1475,-0.1495,-0.1549,-0.1551,-0.1645,-0.1646,-0.1663,-0.1665,0,0,0,-0.1194,-0.1197,-0.1212,-0.1243,-0.1291,-0.1387,-0.1407,-0.1465,-0.1479,-0.1547,-0.1551,-0.1645,-0.1646,-0.1662,-0.1663,-0.1652,0,0,0,-0.1167,-0.1187,-0.1212,-0.1238,-0.1289,-0.1362,-0.1406,-0.1485,-0.1545,-0.1549,-0.1645,-0.1646,-0.1662,-0.1662,-0.1651,-0.1424,0,0,0,-0.1175,-0.1188,-0.1202,-0.1227,-0.1259,-0.1344,-0.1423,-0.1525,-0.1555,-0.1607,-0.161,-0.1664,-0.1663,-0.1652,-0.1472,0,0,0,0,-0.1193,-0.1203,-0.1219,-0.1245,-0.1298,-0.1381,-0.1481,-0.1532,-0.1624,-0.1587,-0.1674,-0.1673,-0.1665,-0.1532,-0.165,-0.165,-0.165,-0.165,-0.165,-0.1157,-0.1185,-0.1215,-0.1266,-0.1317,-0.1423,-0.1503,-0.1592,-0.1628,-0.1674,-0.1696,-0.1711,-0.1573,-0.1709,-0.1709,-0.1709,-0.1709,-0.1709,-0.1709,-0.1161,-0.1173,-0.1228,-0.1278,-0.1348,-0.1432,-0.1557,-0.1612,-0.1702,-0.1723,-0.1714,-0.1571,-0.1711,-0.1711,-0.171,-0.171,-0.171,-0.171,-0.171,-0.1123,-0.1137,-0.1201,-0.128,-0.1356,-0.146,-0.1517,-0.1629,-0.1708,-0.1729,-0.1576,-0.1716,-0.1704,-0.1729,-0.1729,-0.1729,-0.1729,-0.1729,-0.1729,-0.1057,-0.1123,-0.1163,-0.1269,-0.1302,-0.1381,-0.1499,-0.1515,-0.1612,-0.1568,-0.1737,-0.1717,-0.1717,-0.1705,-0.1729,-0.1729,-0.1729,-0.1729,-0.1729,-0.1002,-0.1039,-0.1084,-0.1119,-0.1184,-0.1219,-0.1343,-0.135,-0.1349,-0.1327,-0.1466,-0.1479,-0.1445,-0.1451,-0.1428,-0.1371,-0.1368,-0.1365,0,-0.0934,-0.0963,-0.0982,-0.0994,-0.1,-0.1098,-0.103,-0.1081,-0.1192,-0.1189,-0.1356,-0.1515,-0.1523,-0.1485,-0.1486,-0.1458,0,0,0,-0.0888,-0.0893,-0.0869,-0.0906,-0.0894,-0.0923,-0.1013,-0.0994,-0.1203,-0.1103,-0.1293,-0.1312,-0.1471,-0.1728,-0.1706,-0.1705,-0.1684,0,0]},{"header":{"parameterUnit":"m.s-1","parameterCategory":2,"la1":30.2992,"la2":30.254,"lo1":-89.0895,"lo2":-89.0443,"dy":0.0025,"dx":0.0025,"nx":19,"ny":19,"refTime":"2026-03-22T09:00:00:Z","depth":"4","parameterNumber":3,"parameterNumberName":"V-component_of_CURRENTS"},"data":[0,0,0,-0.0009,-0.001,0.0003,0.0003,0.0019,0.0019,0,0,0,0,0,0,0,0,0,0,0,-0.0006,-0.0006,-0.0009,-0.001,0.0003,0.0003,0.0019,0.0019,0,0,0,0,0,0,0,0,0,0,0,-0.0006,-0.0006,-0.0006,-0.001,0.0003,0.0003,0.0019,0.0013,0,0,0,0,0,0,0,0,0,0,0.0002,0.0003,-0.0006,-0.0006,-0.001,0.0003,0.0003,0.0013,0.0013,0.0009,0,0.0007,0,0.0004,0.0019,0.0019,0,0,0,0.0004,0.0002,-0.0001,-0.0006,-0.001,0.0003,0.0001,0.0013,0.0014,0.0009,0.0007,0.0008,0.0004,0.0019,0.0019,0.0004,0.0004,0,0,0.0003,0.0004,-0.0002,-0.0001,-0.0011,0.0001,0.0001,0.0013,0.0016,0.0007,0.0008,0.0004,0.0019,0.0019,0.0004,0.0004,0,0,0,-0.0008,0.0003,0.0,-0.0001,-0.0004,0.0001,0.0002,0.0016,0.0012,0.0008,0.0004,0.0019,0.0019,0.0005,0.0004,-0.0041,0,0,0,-0.0008,-0.0004,-0.0,0.0001,-0.0005,0.0006,0.0004,0.0012,0.0013,0.0004,0.0019,0.0019,0.0005,0.0005,-0.0039,-0.0081,0,0,0,-0.0006,-0.0004,-0.0006,0.0001,-0.0001,0.0005,0.0004,0.0013,0.001,0.0019,0.0019,0.0005,0.0005,-0.0038,-0.0078,-0.0047,0,0,0,-0.0001,-0.0023,-0.0005,-0.0043,-0.0001,-0.0033,0.0004,-0.0007,-0.0004,0.0019,0.0005,0.0004,-0.0038,-0.0076,-0.0046,-0.0031,0,0,0,-0.0032,-0.0026,-0.0055,-0.004,-0.0092,-0.0033,-0.0068,-0.0041,-0.0007,0.0003,0.0003,-0.004,-0.0078,-0.0047,-0.005,0,0,0,0,-0.0069,-0.0083,-0.0097,-0.0123,-0.0133,-0.0129,-0.0095,-0.0068,-0.0039,-0.0009,-0.0034,-0.0056,-0.0035,-0.0023,0.0003,0.0003,0.0003,0.0003,0.0003,-0.0095,-0.0123,-0.0172,-0.0197,-0.0212,-0.0192,-0.0174,-0.0127,-0.0088,-0.0072,-0.0088,-0.0093,-0.0083,-0.0069,-0.0069,-0.0069,-0.0069,-0.0069,-0.007,-0.0146,-0.018,-0.0217,-0.0268,-0.0278,-0.0293,-0.0251,-0.0206,-0.0152,-0.0125,-0.01,-0.0067,-0.0074,-0.0073,-0.0072,-0.0072,-0.0072,-0.0071,-0.0071,-0.0159,-0.0179,-0.0214,-0.0284,-0.0338,-0.0343,-0.0343,-0.0295,-0.0206,-0.019,-0.0121,-0.0112,-0.0112,-0.015,-0.015,-0.015,-0.015,-0.015,-0.015,-0.0145,-0.0185,-0.0226,-0.0301,-0.035,-0.0394,-0.0391,-0.0348,-0.0267,-0.0183,-0.019,-0.0119,-0.0117,-0.0115,-0.0151,-0.0151,-0.0151,-0.0151,-0.0151,-0.0157,-0.016,-0.0218,-0.0266,-0.0376,-0.0415,-0.0428,-0.0343,-0.0277,-0.0191,-0.0154,-0.0154,-0.0129,-0.0125,-0.0123,-0.0163,-0.0163,-0.0163,0,-0.015,-0.0162,-0.0219,-0.0286,-0.0364,-0.0425,-0.0374,-0.0334,-0.0232,-0.0218,-0.0251,-0.0213,-0.0211,-0.0188,-0.0184,-0.0185,0,0,0,-0.0157,-0.0169,-0.0208,-0.0274,-0.0367,-0.0361,-0.0364,-0.0322,-0.0252,-0.0197,-0.0161,-0.0161,-0.02,-0.0154,-0.0114,-0.0111,-0.0105,0,0]}]]